| time (UTC) | temp F | wind direction | speed knots | gust knots | rain 1hr in | rain 24hr in | rain mn in | humidity % | barometer mb |
| 20260506091537 | 58 | 360 | 3.5 | 9.6 | 0.00 | 0.25 | 0.00 | 48 | 1014.2 |
| 20260506090034 | 58 | 28 | 2.6 | 12.2 | 0.00 | 0.25 | 0.00 | 47 | 1014.2 |
| 20260506084540 | 58 | 5 | 5.2 | 11.3 | 0.00 | 0.25 | 0.00 | 46 | 1014.1 |
| 20260506083033 | 58 | 24 | 7.8 | 15.6 | 0.00 | 0.25 | 0.00 | 47 | 1014.2 |
| 20260506081541 | 57 | 17 | 7.0 | 13.0 | 0.00 | 0.25 | 0.00 | 47 | 1014.1 |
| 20260506073043 | 53 | 271 | 4.3 | 8.7 | 0.00 | 0.25 | 0.00 | 53 | 1014.1 |
| 20260506071536 | 51 | 282 | 2.6 | 8.7 | 0.00 | 0.25 | 0.00 | 55 | 1014.0 |
| 20260506061535 | 50 | 215 | 0.0 | 1.7 | 0.00 | 0.25 | 0.00 | 64 | 1013.8 |
| 20260506044613 | 49 | 252 | 0.9 | 2.6 | 0.00 | 0.25 | 0.00 | 64 | 1013.4 |
| 20260506043032 | 49 | 0 | 0.9 | 2.6 | 0.00 | 0.25 | 0.00 | 64 | 1013.4 |
| 20260506041531 | 49 | 0 | 0.0 | 1.7 | 0.00 | 0.25 | 0.00 | 64 | 1013.4 |
| 20260506040031 | 49 | 0 | 0.0 | 0.9 | 0.00 | 0.25 | 0.00 | 64 | 1013.6 |
| 20260506034600 | 49 | 248 | 0.0 | 2.6 | 0.00 | 0.26 | 0.00 | 64 | 1013.6 |
| 20260506033035 | 49 | 250 | 0.0 | 1.7 | 0.00 | 0.26 | 0.00 | 64 | 1013.6 |
| 20260506031531 | 49 | 0 | 0.0 | 0.9 | 0.00 | 0.26 | 0.00 | 64 | 1013.6 |
| 20260506030032 | 49 | 0 | 0.0 | 1.7 | 0.00 | 0.26 | 0.00 | 64 | 1013.7 |
| 20260506024532 | 49 | 0 | 0.0 | 1.7 | 0.00 | 0.26 | 0.00 | 64 | 1013.8 |
| 20260506023035 | 49 | 250 | 0.0 | 2.6 | 0.00 | 0.26 | 0.00 | 64 | 1013.7 |
| 20260506021534 | 49 | 245 | 1.7 | 4.3 | 0.00 | 0.26 | 0.00 | 64 | 1013.7 |
| 20260506020030 | 49 | 235 | 0.0 | 2.6 | 0.00 | 0.25 | 0.00 | 64 | 1013.9 |
| 20260506014533 | 49 | 235 | 1.7 | 3.5 | 0.00 | 0.25 | 0.00 | 64 | 1013.9 |
| 20260506013035 | 50 | 0 | 0.0 | 1.7 | 0.00 | 0.25 | 0.00 | 64 | 1013.8 |
| 20260506011533 | 49 | 0 | 0.0 | 1.7 | 0.00 | 0.25 | 0.00 | 64 | 1014.0 |
| 20260506010035 | 49 | 0 | 0.0 | 1.7 | 0.00 | 0.25 | 0.00 | 64 | 1014.1 |
| 20260506004556 | 49 | 223 | 0.0 | 2.6 | 0.00 | 0.25 | 0.00 | 64 | 1014.3 |
| 20260506003041 | 49 | 0 | 0.9 | 2.6 | 0.00 | 0.25 | 0.00 | 63 | 1014.3 |
| 20260506001530 | 49 | 223 | 0.0 | 1.7 | 0.00 | 0.25 | 0.00 | 63 | 1014.5 |
| 20260506000031 | 49 | 223 | 0.9 | 2.6 | 0.00 | 0.25 | 0.00 | 63 | 1014.4 |
| 20260505234549 | 49 | 223 | 0.9 | 2.6 | 0.00 | 0.30 | 0.00 | 62 | 1014.5 |
| 20260505233036 | 49 | 0 | 0.9 | 3.5 | 0.00 | 0.30 | 0.00 | 62 | 1014.6 |
| 20260505231535 | 49 | 223 | 0.9 | 3.5 | 0.00 | 0.30 | 0.00 | 61 | 1014.6 |
| 20260505230040 | 49 | 0 | 0.9 | 2.6 | 0.00 | 0.30 | 0.00 | 60 | 1014.6 |
| 20260505224536 | 49 | 227 | 0.0 | 2.6 | 0.00 | 0.30 | 0.00 | 59 | 1014.6 |
| 20260505223031 | 49 | 227 | 1.7 | 3.5 | 0.00 | 0.30 | 0.00 | 59 | 1014.6 |
| 20260505221535 | 50 | 0 | 0.0 | 2.6 | 0.00 | 0.30 | 0.00 | 59 | 1014.8 |
| 20260505220043 | 50 | 263 | 1.7 | 3.5 | 0.00 | 0.30 | 0.00 | 58 | 1014.8 |
| 20260505214537 | 50 | 262 | 0.9 | 2.6 | 0.00 | 0.30 | 0.30 | 58 | 1014.8 |
| 20260505213031 | 51 | 0 | 0.0 | 2.6 | 0.00 | 0.30 | 0.30 | 58 | 1015.1 |
| 20260505211530 | 51 | 262 | 0.0 | 2.6 | 0.00 | 0.30 | 0.30 | 58 | 1015.1 |
| 20260505210030 | 51 | 265 | 0.9 | 6.1 | 0.00 | 0.30 | 0.30 | 58 | 1015.0 |
| 20260505204535 | 52 | 0 | 0.0 | 0.0 | 0.00 | 0.30 | 0.30 | 58 | 1014.9 |
| 20260505203030 | 52 | 0 | 0.0 | 0.0 | 0.00 | 0.30 | 0.30 | 58 | 1014.8 |
| 20260505201536 | 52 | 0 | 0.0 | 1.7 | 0.00 | 0.29 | 0.29 | 58 | 1014.9 |
| 20260505200030 | 52 | 0 | 0.0 | 1.7 | 0.00 | 0.29 | 0.29 | 58 | 1014.6 |
| 20260505194537 | 53 | 0 | 0.0 | 0.9 | 0.03 | 0.29 | 0.29 | 58 | 1014.6 |
| 20260505193038 | 53 | 37 | 0.0 | 2.6 | 0.04 | 0.29 | 0.29 | 58 | 1014.5 |
| 20260505191547 | 53 | 0 | 0.0 | 2.6 | 0.04 | 0.29 | 0.29 | 57 | 1014.3 |
| 20260505190031 | 54 | 35 | 0.9 | 13.0 | 0.03 | 0.29 | 0.29 | 56 | 1014.2 |
| 20260505184533 | 54 | 315 | 5.2 | 8.7 | 0.00 | 0.25 | 0.25 | 55 | 1014.3 |
| 20260505183035 | 55 | 273 | 0.9 | 3.5 | 0.00 | 0.25 | 0.25 | 56 | 1014.2 |
| 20260505181534 | 55 | 275 | 0.9 | 5.2 | 0.00 | 0.25 | 0.25 | 57 | 1014.1 |
| 20260505180045 | 55 | 287 | 1.7 | 5.2 | 0.00 | 0.25 | 0.25 | 57 | 1014.1 |
| 20260505174539 | 55 | 302 | 1.7 | 5.2 | 0.00 | 0.25 | 0.25 | 57 | 1014.1 |
| 20260505173031 | 56 | 252 | 0.9 | 6.1 | 0.00 | 0.25 | 0.25 | 57 | 1014.0 |
| 20260505171534 | 56 | 269 | 1.7 | 7.0 | 0.00 | 0.24 | 0.24 | 56 | 1014.1 |
| 20260505170036 | 56 | 279 | 1.7 | 6.1 | 0.00 | 0.24 | 0.24 | 55 | 1014.2 |
| 20260505164530 | 56 | 288 | 4.3 | 10.4 | 0.00 | 0.24 | 0.24 | 52 | 1014.2 |
| 20260505163038 | 56 | 13 | 4.3 | 12.2 | 0.01 | 0.24 | 0.24 | 52 | 1014.1 |
| 20260505161530 | 56 | 31 | 6.1 | 13.0 | 0.01 | 0.24 | 0.24 | 52 | 1013.9 |
| 20260505153042 | 54 | 181 | 1.7 | 5.2 | 0.00 | 0.22 | 0.22 | 56 | 1013.9 |
| 20260505151537 | 54 | 0 | 2.6 | 6.1 | 0.06 | 0.22 | 0.22 | 56 | 1014.0 |
| 20260505124536 | 59 | 355 | 8.7 | 15.6 | 0.00 | 0.06 | 0.06 | 49 | 1013.6 |
| 20260505123052 | 58 | 13 | 7.8 | 13.0 | 0.00 | 0.06 | 0.06 | 51 | 1013.7 |
| 20260505121534 | 58 | 0 | 0.0 | 1.7 | 0.00 | 0.06 | 0.06 | 55 | 1013.7 |
| 20260505120032 | 56 | 28 | 0.0 | 5.2 | 0.00 | 0.06 | 0.06 | 56 | 1013.8 |
| 20260505114533 | 56 | 58 | 2.6 | 11.3 | 0.00 | 0.06 | 0.06 | 56 | 1013.9 |
| 20260505113037 | 56 | 32 | 8.7 | 13.0 | 0.00 | 0.06 | 0.06 | 56 | 1013.9 |
| 20260505111550 | 56 | 34 | 7.0 | 15.6 | 0.00 | 0.06 | 0.06 | 55 | 1014.0 |
| 20260505101535 | 60 | 23 | 3.5 | 8.7 | 0.00 | 0.06 | 0.06 | 44 | 1013.6 |
| 20260505100034 | 59 | 32 | 3.5 | 8.7 | 0.00 | 0.06 | 0.06 | 44 | 1013.8 |
| 20260505094530 | 59 | 31 | 1.7 | 11.3 | 0.00 | 0.06 | 0.06 | 46 | 1013.7 |
| 20260505093036 | 59 | 28 | 2.6 | 7.8 | 0.00 | 0.05 | 0.05 | 46 | 1013.7 |